Flag for Portugal Weather past 2 weeks in Lisbon, Portugal

Now
81 °F

Passing clouds.


Feels Like: 82 °F
Forecast: 61 / 80 °F
Wind: 8 mph from North

Location: Lisbon Portela Airport

Current Time: Jul 26, 2014 at 3:13:30 PM

Latest Report: Jul 26, 2014 at 2:30 PM


Visibility: N/A

Pressure: 29.95 "Hg

Humidity: 54%

Dew point: 63 °F

Location of LisbonLocation

Historic Weather in Lisbon — Graph

°F

Lisbon temperature yesterday

Maximum temperature yesterday: 77 °F (at 2:30 PM)
Minimum temperature yesterday: 64 °F (at 6:00 AM)
Average temperature yesterday: 69 °F

Past Weeks' High & Low Weather Summary

 TemperatureHumidityPressure
High91 °F (Jul 11, 3:30 PM)94% (Jul 13, 2:00 AM)30.18 "Hg (Jul 13, 2:00 AM)
Low59 °F (Jul 21, 4:00 AM)17% (Jul 11, 2:00 PM)29.89 "Hg (Jul 19, 5:00 AM)
Average70 °F70%30.01 "Hg
* Reported Jul 11 2:00 PM — Jul 26 2:00 PM, Lisbon, Weather by CustomWeather, © 2014

Note: Actual official high and low records may vary slightly from our data, if they occured in-between our weather recording intervals... More about our weather records

Advertising

Lisbon weather history for previous 24 hours

 ConditionsComfort  
Time TempWeatherWind HumidityBarometerVisibility
2:00 PM
Jul 26
79 °FPassing clouds.9 mph58%29.95 "HgN/A
1:30 PM77 °FPassing clouds.6 mph61%29.95 "HgN/A
1:00 PM75 °FPassing clouds.7 mph65%29.98 "HgN/A
12:30 PM75 °FPassing clouds.8 mph65%29.98 "HgN/A
12:00 PM73 °FPassing clouds.8 mph69%29.98 "HgN/A
11:30 AM72 °FScattered clouds.8 mph73%29.95 "HgN/A
11:00 AM72 °FPartly sunny.6 mph73%29.95 "HgN/A
10:30 AM72 °FPartly sunny.6 mph73%29.95 "HgN/A
10:00 AM72 °FPartly sunny.3 mph73%29.95 "HgN/A
9:30 AM68 °FPartly sunny.5 mph83%29.95 "HgN/A
9:00 AM68 °FPartly sunny.6 mph83%29.95 "HgN/A
8:30 AM68 °FScattered clouds.6 mph83%29.95 "HgN/A
8:00 AM66 °FSunny.6 mph88%29.95 "Hg10 mi
7:30 AM64 °FPassing clouds.6 mph88%29.92 "HgN/A
7:00 AM64 °FClear.7 mph88%29.92 "Hg10 mi
6:30 AM64 °FPassing clouds.7 mph88%29.92 "HgN/A
6:00 AM64 °FClear.8 mph88%29.92 "Hg10 mi
5:30 AM64 °FClear.8 mph88%29.92 "Hg10 mi
5:00 AM64 °FClear.8 mph88%29.92 "Hg10 mi
4:30 AM64 °FClear.8 mph88%29.92 "Hg10 mi
4:00 AM64 °FClear.10 mph88%29.92 "Hg10 mi
3:30 AM64 °FPassing clouds.8 mph88%29.92 "HgN/A
3:00 AM64 °FPassing clouds.9 mph88%29.92 "HgN/A
2:30 AM64 °FClear.9 mph88%29.92 "Hg10 mi
2:00 AM64 °FPassing clouds.9 mph88%29.92 "HgN/A
1:30 AM64 °FPassing clouds.10 mph88%29.92 "HgN/A
1:00 AM64 °FPassing clouds.12 mph88%29.92 "HgN/A
12:30 AM66 °FPassing clouds.10 mph83%29.92 "HgN/A
12:00 AM66 °FPassing clouds.13 mph83%29.92 "HgN/A
11:30 PM
Jul 25
66 °FPassing clouds.10 mph83%29.92 "HgN/A
11:00 PM66 °FPassing clouds.13 mph83%29.92 "HgN/A
10:30 PM66 °FPassing clouds.12 mph83%29.92 "HgN/A
10:00 PM66 °FPassing clouds.14 mph83%29.92 "HgN/A
9:30 PM66 °FPassing clouds.16 mph83%29.92 "HgN/A
9:00 PM66 °FPassing clouds.18 mph83%29.89 "HgN/A
8:30 PM68 °FPassing clouds.17 mph78%29.89 "HgN/A
8:00 PM68 °FPassing clouds.16 mph78%29.89 "HgN/A
7:30 PM70 °FPassing clouds.16 mph73%29.89 "HgN/A
7:00 PM72 °FPassing clouds.16 mph69%29.89 "HgN/A
6:30 PM73 °FPassing clouds.16 mph65%29.89 "HgN/A
6:00 PM73 °FPassing clouds.16 mph65%29.89 "HgN/A
5:30 PM73 °FPassing clouds.15 mph69%29.89 "HgN/A
5:00 PM75 °FPassing clouds.12 mph65%29.89 "HgN/A
4:30 PM77 °FPassing clouds.10 mph61%29.89 "HgN/A
3:30 PM77 °FPassing clouds.8 mph61%29.89 "HgN/A
3:00 PM77 °FPassing clouds.9 mph61%29.89 "HgN/A
Weather by CustomWeather, © 2014

See weather overviewHow to use our weather pages